Location: Boone Canyon
(38.3180°N, 119.2504°W)
Time: 18:17:39
(UTC+00:00)

Okean 1 - Pass Details

Date: 18 September 2020
Orbit: 537 x 557 km, 82.5° (Epoch: 19 October)

Event Time Altitude Azimuth Distance (km) Brightness Sun altitude
Rises 13:12:02 0° 182° (S) 2,722 6.8 -6.6°
Reaches altitude 10° 13:14:11 10° 180° (S) 1,833 5.9 -6.2°
Maximum altitude 13:18:13 74° 96° (E) 583 3.7 -5.4°
Drops below altitude 10° 13:22:16 10° 11° (N) 1,846 6.2 -4.7°
Sets 13:24:27 0° 10° (N) 2,744 7.1 -4.2°
